{"data":{"norad_id":58040,"epoch":"2026-05-25T02:01:39.117792Z","epoch_age_seconds":78005,"freshness":"FRESH","line1":"1 58040U 23156N   26145.08448053  .00000409  00000+0  23250-4 0  9992","line2":"2 58040  53.1604 173.0251 0001467  85.2020 274.9150 15.34393208146739","mean_motion":15.34393208,"eccentricity":0.0001467,"inclination_deg":53.1604,"raan_deg":173.0251,"arg_perigee_deg":85.202,"mean_anomaly_deg":274.915,"bstar":2.325e-5,"rev_number":14673,"period_min":93.848173498954,"perigee_km":461.7198733122,"apogee_km":463.72698176164,"semimajor_km":6840.8604275369,"source":"CELESTRAK","updated_at":"2026-05-25T13:38:18.496447Z"}}